Flag for Guinea Weather past 2 weeks in Conakry, Guinea

Now
81 °F

Fog.


Feels Like: 86 °F
Forecast: N/A
Wind: 5 mph from West

Location: Conakry / Gbessia

Current Time: Feb 27, 2015 at 10:11:12 PM

Latest Report: Feb 27, 2015 at 9:00 PM


Visibility: 2 mi

Pressure: 29.83 "Hg

Humidity: 84%

Dew point: 75 °F

Location of ConakryLocation

Historic Weather in Conakry — Graph

°F

Conakry temperature yesterday

Maximum temperature yesterday: 86 °F (at 3:00 PM)
Minimum temperature yesterday: 73 °F (at 4:00 AM)
Average temperature yesterday: 79 °F

Past Weeks' High & Low Weather Summary

 TemperatureHumidityPressure
High95 °F (Feb 25, 3:00 PM)100% (Feb 14, 4:00 AM)30.09 "Hg (Feb 14, 4:00 AM)
Low43 °F (Feb 23, 3:00 AM)23% (Feb 25, 3:00 PM)29.71 "Hg (Feb 20, 4:00 PM)
Average81 °F77%29.85 "Hg
* Reported Feb 12 9:00 PM — Feb 27 9:00 PM, Conakry, Weather by CustomWeather, © 2015

Note: Actual official high and low records may vary slightly from our data, if they occured in-between our weather recording intervals... More about our weather records

Advertising

Conakry weather history for previous 24 hours

 ConditionsComfort  
Time TempWeatherWind HumidityBarometerVisibility
9:00 PM
Fri, Feb 27
81 °FFog.5 mph84%29.83 "Hg2 mi
8:00 PM81 °FFog.7 mph79%29.80 "Hg2 mi
7:00 PM82 °FHaze.7 mph74%29.77 "Hg3 mi
6:00 PM86 °FHaze.7 mph66%29.74 "Hg3 mi
5:00 PM88 °FHaze.12 mph55%29.74 "Hg3 mi
4:00 PM88 °FSunny.12 mph59%29.74 "Hg10 mi
3:00 PM88 °FSunny.9 mph59%29.77 "Hg10 mi
2:00 PM86 °FSunny.7 mph62%30.09 "Hg10 mi
1:00 PM86 °FSunny.7 mph62%29.83 "Hg10 mi
12:00 PM84 °FSunny.5 mph66%29.86 "Hg10 mi
11:00 AM82 °FPassing clouds.5 mph70%29.89 "HgN/A
8:00 AM73 °FScattered clouds.5 mph94%29.86 "HgN/A
7:00 AM73 °FPassing clouds.5 mph94%29.83 "HgN/A
6:00 AM73 °FFog.5 mph100%29.80 "Hg2 mi
5:00 AM73 °FFog.No wind100%29.80 "Hg2 mi
4:00 AM73 °FFog.2 mph100%29.80 "Hg2 mi
3:00 AM75 °FPassing clouds.2 mph94%29.80 "HgN/A
2:00 AM75 °FPassing clouds.2 mph100%29.83 "HgN/A
1:00 AM75 °FPassing clouds.2 mph94%29.83 "HgN/A
12:00 AM77 °FPassing clouds.5 mph94%29.83 "HgN/A
11:00 PM
Thu, Feb 26
77 °FClear.5 mph94%29.83 "Hg10 mi
10:00 PM77 °FClear.5 mph89%29.83 "Hg10 mi
Weather by CustomWeather, © 2015

See weather overviewHow to use our weather pages